Regional Weather Roundup
Issued by NWS

Home | Current Version | Previous Version | Text Only | Print | Product List | Glossary Off
Versions: 1 2 3 4 5 6 7 8 9 10 11 12 13 14 15 16 17 18 19 20 21 22 23 24 25 26 27 28 29 30 31 32 33 34 35 36 37 38 39 40 41 42 43 44 45 46 47 48 49 50

000
ASUS43 KFSD 022310
RWRSD

WEATHER ROUNDUP FOR SOUTH DAKOTA
NATIONAL WEATHER SERVICE SIOUX FALLS SD
600 PM CDT WED SEP 02 2015

NOTE: "FAIR" INDICATES FEW OR NO CLOUDS BELOW 12,000 FEET WITH NO
SIGNIFICANT WEATHER AND/OR OBSTRUCTIONS TO VISIBILITY.


SDZ001>005-009-010-012>017-030000-
NORTHWEST AND NORTH CENTRAL SOUTH DAKOTA

CITY           SKY/WX    TMP DP  RH WIND       PRES   REMARKS
BUFFALO          N/A     94  44  17 SE7       29.69F
FAITH            N/A     96  52  22 S10       29.74S
MOBRIDGE       SUNNY     91  70  49 SE14      29.69F HX  96
$$

SDZ012>016-024>037-041>051-057-063-072>074-030000-
SOUTHWEST AND SOUTH CENTRAL SOUTH DAKOTA

CITY           SKY/WX    TMP DP  RH WIND       PRES   REMARKS
RAPID CTY ARPT SUNNY     94  50  22 SW8       29.76F
PIERRE         SUNNY     94  66  39 SE13      29.69F HX  97
CUSTER         SUNNY     87  31  13 SW10G20   29.97F
ELLSWORTH AFB  MOSUNNY   96  49  20 E3        29.76
PHILIP         SUNNY     98  53  22 S9        29.71F HX  96
PINE RIDGE     SUNNY     95  44  17 SW10G18   29.82F
WINNER         FAIR     100  52  19 S10       29.74S HX  97
$$

SDZ004>011-016>023-039-040-030000-
NORTHEAST SOUTH DAKOTA

CITY           SKY/WX    TMP DP  RH WIND       PRES   REMARKS
ABERDEEN       PTSUNNY   88  74  63 SE6       29.74F HX  96
WATERTOWN      PTSUNNY   87  72  60 SE10      29.80F
BROOKINGS      PTSUNNY   84  73  70 SE10      29.83S
SISSETON         N/A     85  72  65 S15       29.77F
$$

SDZ017-020-022-023-036>040-048>070-030000-
SOUTHEAST SOUTH DAKOTA

CITY           SKY/WX    TMP DP  RH WIND       PRES   REMARKS
SIOUX FALLS    PTSUNNY   85  73  67 S13       29.81R
HURON          MOSUNNY   89  72  56 SE14      29.73S HX  96
CHAMBERLAIN    SUNNY     92  74  54 SE3       29.72F HX 102
MITCHELL       SUNNY     91  75  59 SE12      29.74F HX 101
YANKTON        SUNNY     88  73  62 S9        29.77S HX  96
$$

ABBREVIATIONS USED IN REMARKS
   TC - TEMPERATURE IN CELSIUS
  WCI - WIND CHILL INDEX
   HX - HEAT INDEX
  VSB - VISIBILITY



USA.gov is the U.S. government's official web portal to all federal, state and local government web resources and services.